Preston, Minnesota, United States (55965)
Lat: 43.67N, Lon: 92.08W
Wx Zone: MNZ095
Local Info
Past Weather Observations for Today

NOTE: This archive is for the closest National Weather Service station to Preston. Information may differ from the station used for current weather conditions.

Click here for Long-term Archive

Time Weather Temperature Dewpoint Humidity Pressure Winds Precip Visibility
19:14
Clear
64°F / 18°C 55°F / 13°C 73% 29.95 in
(1014 mb)
NE 4.6 mph
(NE 7 kph)
- 10SM
18:54
Clear
66°F / 19°C 55°F / 13°C 68% 29.95 in
(1014 mb)
NNE 4.6 mph
(NNE 7 kph)
- 10SM
18:34
Clear
68°F / 20°C 57°F / 14°C 69% 29.92 in
(1013 mb)
NE 6.9 mph
(NE 11 kph)
- 10SM
18:13
Clear
68°F / 20°C 57°F / 14°C 69% 29.92 in
(1013 mb)
N 6.9 mph
(N 11 kph)
- 10SM
17:33
Clear
70°F / 21°C 57°F / 14°C 64% 29.92 in
(1013 mb)
NE 5.8 mph
(NE 9 kph)
- 10SM
17:14
Clear
70°F / 21°C 57°F / 14°C 64% 29.92 in
(1013 mb)
N 5.8 mph
(N 9 kph)
- 10SM
16:54
Clear
72°F / 22°C 57°F / 14°C 61% 29.92 in
(1013 mb)
N 8.1 mph
(N 13 kph)
- 10SM
16:33
Clear
70°F / 21°C 57°F / 14°C 64% 29.92 in
(1013 mb)
N 8.1 mph
(N 13 kph)
- 10SM
16:14
Clear
70°F / 21°C 57°F / 14°C 64% 29.92 in
(1013 mb)
N 10.4 mph
(N 17 kph)
- 10SM
15:54
Partly Cloudy
70°F / 21°C 57°F / 14°C 64% 29.95 in
(1014 mb)
N 10.4 mph
(N 17 kph)
- 10SM
15:33
Partly Cloudy
70°F / 21°C 57°F / 14°C 64% 29.92 in
(1013 mb)
N 5.8 mph
(N 9 kph)
- 10SM
15:14
Partly Cloudy
70°F / 21°C 57°F / 14°C 64% 29.92 in
(1013 mb)
N 8.1 mph
(N 13 kph)
- 10SM
14:54
Partly Cloudy
70°F / 21°C 57°F / 14°C 64% 29.92 in
(1013 mb)
N 8.1 mph
(N 13 kph)
- 10SM
14:33
Clear
70°F / 21°C 59°F / 15°C 69% 29.92 in
(1013 mb)
NNW 8.1 mph
(NNW 13 kph)
- 10SM
14:14
Partly Cloudy
70°F / 21°C 59°F / 15°C 69% 29.95 in
(1014 mb)
N 10.4 mph
(N 17 kph)
- 10SM
13:54
Mostly Cloudy
68°F / 20°C 59°F / 15°C 73% 29.95 in
(1014 mb)
NE 8.1 mph
(NE 13 kph)
- 10SM
13:34
Overcast
68°F / 20°C 59°F / 15°C 73% 29.95 in
(1014 mb)
N 6.9 mph
(N 11 kph)
- 10SM
13:14
Overcast
66°F / 19°C 59°F / 15°C 78% 29.95 in
(1014 mb)
N 8.1 mph
(N 13 kph)
- 7SM
12:54
Overcast
66°F / 19°C 59°F / 15°C 78% 29.95 in
(1014 mb)
N 8.1 mph
(N 13 kph)
- 7SM
12:34
Overcast
66°F / 19°C 59°F / 15°C 78% 29.95 in
(1014 mb)
NE 10.4 mph
(NE 17 kph)
- 7SM
12:13
Overcast
66°F / 19°C 59°F / 15°C 78% 29.95 in
(1014 mb)
NNE 8.1 mph
(NNE 13 kph)
- 7SM
11:54
Overcast
66°F / 19°C 61°F / 16°C 83% 29.95 in
(1014 mb)
N 6.9 mph
(N 11 kph)
- 10SM
11:33
Mostly Cloudy
66°F / 19°C 61°F / 16°C 83% 29.95 in
(1014 mb)
NE 9.2 mph
(NE 15 kph)
- 7SM
11:13
Mostly Cloudy
66°F / 19°C 61°F / 16°C 83% 29.95 in
(1014 mb)
NNE 8.1 mph
(NNE 13 kph)
- 10SM
10:54
Mostly Cloudy
68°F / 20°C 61°F / 16°C 78% 29.95 in
(1014 mb)
NNE 8.1 mph
(NNE 13 kph)
- 10SM
10:34
Mostly Cloudy
68°F / 20°C 61°F / 16°C 78% 29.95 in
(1014 mb)
NNE 4.6 mph
(NNE 7 kph)
- 10SM
10:14
Mostly Cloudy
66°F / 19°C 61°F / 16°C 83% 29.95 in
(1014 mb)
NE 8.1 mph
(NE 13 kph)
- 10SM
09:54
Overcast
66°F / 19°C 61°F / 16°C 83% 29.95 in
(1014 mb)
N 6.9 mph
(N 11 kph)
- 10SM
09:34
Overcast
66°F / 19°C 61°F / 16°C 83% 29.92 in
(1013 mb)
N 6.9 mph
(N 11 kph)
- 7SM
09:14
Overcast
66°F / 19°C 61°F / 16°C 83% 29.92 in
(1013 mb)
NE 5.8 mph
(NE 9 kph)
- 7SM
08:54
Overcast
66°F / 19°C 61°F / 16°C 83% 29.92 in
(1013 mb)
N 6.9 mph
(N 11 kph)
- 7SM
08:34
Mostly Cloudy
64°F / 18°C 61°F / 16°C 88% 29.92 in
(1013 mb)
N 5.8 mph
(N 9 kph)
- 7SM
08:13
Mostly Cloudy
64°F / 18°C 59°F / 15°C 83% 29.92 in
(1013 mb)
NNE 5.8 mph
(NNE 9 kph)
- 7SM
07:54
Partly Cloudy
64°F / 18°C 61°F / 16°C 88% 29.92 in
(1013 mb)
N 4.6 mph
(N 7 kph)
- 7SM
07:33
Partly Cloudy
63°F / 17°C 61°F / 16°C 94% 29.92 in
(1013 mb)
NNE 4.6 mph
(NNE 7 kph)
- 7SM
07:14
Partly Cloudy
63°F / 17°C 59°F / 15°C 88% 29.92 in
(1013 mb)
N 5.8 mph
(N 9 kph)
- 7SM
06:54
Partly Cloudy
61°F / 16°C 59°F / 15°C 94% 29.92 in
(1013 mb)
N 6.9 mph
(N 11 kph)
- 7SM
06:34
Mostly Cloudy
61°F / 16°C 59°F / 15°C 94% 29.92 in
(1013 mb)
N 4.6 mph
(N 7 kph)
- 7SM
06:13
Partly Cloudy
Fog And Mist
59°F / 15°C 57°F / 14°C 94% 29.89 in
(1012 mb)
NNW 4.6 mph
(NNW 7 kph)
- 5SM
05:54
Mostly Cloudy
Fog And Mist
59°F / 15°C 57°F / 14°C 94% 29.89 in
(1012 mb)
NNW 4.6 mph
(NNW 7 kph)
- 5SM
05:33
Mostly Cloudy
Fog And Mist
57°F / 14°C 55°F / 13°C 94% 29.89 in
(1012 mb)
NW 5.8 mph
(NW 9 kph)
- 5SM
05:14
Mostly Cloudy
Fog And Mist
57°F / 14°C 55°F / 13°C 94% 29.89 in
(1012 mb)
Calm - 3SM
04:53
Clear
Fog And Mist
57°F / 14°C 55°F / 13°C 94% 29.89 in
(1012 mb)
NW 3.5 mph
(NW 6 kph)
- 4SM
04:34
Fog And Mist
55°F / 13°C 55°F / 13°C 100% 29.89 in
(1012 mb)
Calm - 3SM
04:14
Clear
Fog And Mist
55°F / 13°C 54°F / 12°C 94% 29.86 in
(1011 mb)
NW 3.5 mph
(NW 6 kph)
- 4SM
03:53
Clear
Fog And Mist
57°F / 14°C 55°F / 13°C 94% 29.86 in
(1011 mb)
Calm - 5SM
03:34
Clear
Fog And Mist
57°F / 14°C 55°F / 13°C 94% 29.86 in
(1011 mb)
Calm - 5SM
03:13
Clear
Fog And Mist
57°F / 14°C 55°F / 13°C 94% 29.86 in
(1011 mb)
Calm - 5SM
02:53
Clear
Fog And Mist
57°F / 14°C 55°F / 13°C 94% 29.86 in
(1011 mb)
NW 4.6 mph
(NW 7 kph)
- 5SM
02:34
Clear
Fog And Mist
57°F / 14°C 55°F / 13°C 94% 29.86 in
(1011 mb)
NW 3.5 mph
(NW 6 kph)
- 5SM
02:14
Clear
57°F / 14°C 55°F / 13°C 94% 29.86 in
(1011 mb)
WNW 3.5 mph
(WNW 6 kph)
- 7SM
01:54
Clear
59°F / 15°C 57°F / 14°C 94% 29.86 in
(1011 mb)
Calm - 10SM
01:33
Clear
59°F / 15°C 55°F / 13°C 88% 29.86 in
(1011 mb)
Calm - 10SM
01:13
Clear
59°F / 15°C 55°F / 13°C 88% 29.86 in
(1011 mb)
W 3.5 mph
(W 6 kph)
- 10SM
00:54
Clear
59°F / 15°C 55°F / 13°C 88% 29.86 in
(1011 mb)
W 5.8 mph
(W 9 kph)
- 10SM
00:34
Clear
57°F / 14°C 55°F / 13°C 94% 29.86 in
(1011 mb)
W 3.5 mph
(W 6 kph)
- 7SM
00:13
Clear
Fog And Mist
57°F / 14°C 55°F / 13°C 94% 29.86 in
(1011 mb)
Calm - 5SM
Time Weather Temperature Dewpoint Humidity Pressure Winds Precip Visibility


Weather for websites

WeatherForYou.com, LLC is not responsible for any damages or problems caused by this service. Current weather conditions are obtained from the closest station including government and personal stations which may have varying degrees of accuracy. Weather forecasts are derived from the NOAA NDFD. Like all things, this site belongs to Jesus Christ... He just trusts us to maintain it. If you have any questions or comments email webmaster@weatherforyou.com

Copyright © 2015, WeatherForYou.com LLC. All rights reserved.